Regional Weather Roundup
Issued by NWS

Home | Current Version | Previous Version | Graphics & Text | Print | Product List | Glossary On
Versions: 1 2 3 4 5 6 7 8 9 10 11 12 13 14 15 16 17 18 19 20 21 22 23 24 25 26 27 28 29 30 31 32 33 34 35 36 37 38 39 40 41 42 43 44 45 46 47 48 49 50
000
ASUS45 KBOU 241207
RWRCO

WEATHER ROUNDUP FOR COLORADO
NATIONAL WEATHER SERVICE DENVER/BOULDER CO
600 AM MDT SAT JUN 24 2017

NOTE: "FAIR" INDICATES FEW OR NO CLOUDS BELOW 12000 FEET WITH NO
SIGNIFICANT WEATHER AND/OR OBSTRUCTIONS TO VISIBILITY.

COZ001>005-013-030-031-241300-
...NORTHWEST COLORADO...

CITY           SKY/WX    TMP DP  RH WIND       PRES   REMARKS
CRAIG          FAIR      38  33  82 CALM      30.31R
HAYDEN         FAIR      43  28  56 SE5       30.31R
MEEKER         FAIR      43  34  70 W3        30.31R
RABBIT EARS PA FAIR      41  27  56 W7        30.49R
STEAMBOAT SPGS FAIR      38  33  81 CALM      30.32R
WALDEN         FAIR      32  28  86 SE7       30.39R WCI  26
$$

COZ006>008-011-241300-
...WEST CENTRAL VALLEYS...

CITY           SKY/WX    TMP DP  RH WIND       PRES   REMARKS
GRAND JUNCTION FAIR      61  23  23 SE3       30.14R
MONTROSE       FAIR      52  31  44 S8        30.23R
EAGLE          FAIR      43  27  53 SE5       30.34R
RIFLE          FAIR      50  29  44 SE3       30.23R
DELTA          FAIR      55  27  34 NE7       30.19R
NUCLA          NOT AVBL
$$

COZ017>023-064>068-241300-
...SOUTHWEST COLORADO...

CITY           SKY/WX    TMP DP  RH WIND       PRES   REMARKS
DURANGO        FAIR      44  25  47 NE5       30.27R
CORTEZ         FAIR      46  30  53 NE5       30.22R
PAGOSA SPRINGS FAIR      50  19  28 CALM      30.36R
TELLURIDE      FAIR      50  22  33 SE6       30.44S
WOLF CREEK PAS FAIR      43  14  31 SW17G24   30.65S
$$

COZ009-010-012-014-032>034-037-058>063-241300-
...CENTRAL COLORADO...

CITY           SKY/WX    TMP DP  RH WIND       PRES   REMARKS
ASPEN          FAIR      43  29  57 SW7       30.35R
BUENA VISTA    NOT AVBL
COPPER MTN     FAIR      46  19  34 W13       30.59S
BERTHOUD PASS  FAIR      37  27  65 NW25      30.60R
COTTONWOOD PAS CLOUDY    45  39  81 CALM      30.50R
GUNNISON       FAIR      40  30  67 CALM      30.37R
KREMMLING      NOT AVBL
LEADVILLE      CLOUDY    42  34  73 N6        30.49R
MONARCH PASS   FAIR      45  21  39 W14       30.70R
SALIDA         CLOUDY    53  46  76 CALM      30.47R
SUNLIGHT       FAIR      46  19  34 NW6       30.55S
WILKERSON PASS FOG       36  34  93 W7        30.57S VSB 3/4
$$

COZ069>075-241300-
...SAN LUIS VALLEY/SANGRE DE CRISTO MOUNTAINS...

CITY           SKY/WX    TMP DP  RH WIND       PRES   REMARKS
ALAMOSA        FAIR      43  39  86 CALM      30.34R
DEL NORTE      FAIR      43  32  66 W9        30.38S
LA VETA PASS   MOCLDY    45  43  93 S16G25    30.60R
SAGUACHE       FAIR      43  34  70 CALM      30.39R
$$

COZ035-036-038>040-241300-
...NORTHERN COLORADO FRONT RANGE...

CITY           SKY/WX    TMP DP  RH WIND       PRES   REMARKS
DENVER INTL AP MOCLDY    51  47  86 NE7       30.30R
DMNS CITY PARK   N/A     47  47  97 NE5G10    30.31R
AURORA         PTCLDY    49  48  98 CALM      30.31R
FRONT RANGE AP CLOUDY    54  52  94 NE5       30.31R
ERIE MUNI ARPT FAIR      47  46  94 CALM      30.30S FOG
BOULDER MUN AP MOCLDY    50  46  87 CALM      30.31R
CENTENNIAL     FAIR      49  47  93 W5        30.31R
BROOMFIELD     FAIR      48  45  87 N9        30.32R
FORT COLLINS   CLOUDY    54  49  83 N5        30.31R HAZE
LONGMONT       MOCLDY    53  50  89 NW3       30.32S FOG
$$

COZ041-046-047-076>085-087-088-241300-
...PIKES PEAK/PALMER DIVIDE AND SOUTHERN FOOTHILLS...

CITY           SKY/WX    TMP DP  RH WIND       PRES   REMARKS
COLO. SPRINGS  MOCLDY    55  49  80 SE6       30.33S
A. F. ACADEMY  FAIR      53  45  76 SE7       30.33S
SCHRIEVER AFB  CLOUDY    53  47  80 SE6       30.34S
CHEYENNE MTN   FAIR      52  43  70 SW5       30.30S
ELLICOTT       CLOUDY   N/A N/A N/A SW5       30.33R
FALCON         NOT AVBL
FORT CARSON    CLOUDY    57  46  65 S12       30.31S
LIMON          CLOUDY    56  46  69 CALM      30.31R
MONUMENT HILL  FAIR      46  45  93 S12       30.37R
CANON CITY     CLOUDY    57  55  94 CALM      30.31S
WALSENBURG     CLOUDY    52  48  87 SW5       30.33S
TRINIDAD       CLOUDY    57  48  72 NW7       30.32S
$$

COZ042>045-048>051-090-091-241300-
...NORTHEAST COLORADO...

CITY           SKY/WX    TMP DP  RH WIND       PRES   REMARKS
GREELEY ARPT   CLOUDY    54  43  66 CALM      30.31R
AKRON          MOCLDY    50  37  61 N3        30.30R
BURLINGTON     FAIR      50  46  86 S3        30.29R
WRAY           MOCLDY    48  45  87 CALM      30.29R
YUMA           CLOUDY    48  43  81 NE5       30.29R
STERLING       CLOUDY    52  45  76 NE5       30.28R
HOLYOKE        NOT AVBL
FORT MORGAN    CLOUDY    50  47  91 NE7       30.31R
$$

COZ086-089-092>099-241300-
...SOUTHEAST COLORADO...

CITY           SKY/WX    TMP DP  RH WIND       PRES   REMARKS
PUEBLO         CLOUDY    60  52  74 W5        30.28R
LA JUNTA       CLOUDY    64  47  53 SW7       30.26S
LAMAR          CLOUDY    63  49  60 S3        30.24R
SPRINGFIELD      N/A     59  51  75 CALM      30.28R
$$



USA.gov is the U.S. government's official web portal to all federal, state and local government web resources and services.